Location: DARK SKY Beskydy - Park tmavé oblohy, www.darkskybeskydy.cz
(49.4926°N, 18.5016°E)
Time: 13:52:07
(UTC+01:00)

Vanguard 1 - Pass Details

Date: 18 November 2025
Orbit: 650 x 3821 km, 34.2° (Epoch: 07 December)

Event Time Altitude Azimuth Distance (km) Brightness Sun altitude
Rises 16:44:51 0° 241° (WSW) 6,678 16.6 -7.4°
Reaches altitude 10° 16:48:57 10° 236° (WSW) 5,994 15.6 -8.0°
Maximum altitude 17:08:14 51° 169° (S) 4,399 13.4 -11.0°
Drops below altitude 10° 17:29:19 10° 103° (ESE) 6,499 13.7 -14.3°
Enters shadow 17:29:46 - 102° (ESE) 6,569 13.7 -14.4°
